Location: Newark
(35.8833°N, 14.5000°E)
Time: 22:38:58
(UTC+00:00)

NOAA 15 - Pass Details

Date: 21 May 2019
Orbit: 798 x 812 km, 98.7° (Epoch: 18 June)

Event Time Altitude Azimuth Distance (km) Brightness Sun altitude
Rises 18:30:34 0° 201° (SSW) 3,294 7.7 -5.4°
Reaches altitude 10° 18:33:26 10° 217° (SW) 2,371 7.1 -5.9°
Maximum altitude 18:37:19 21° 265° (W) 1,740 7.2 -6.6°
Drops below altitude 10° 18:41:14 10° 314° (NW) 2,389 8.7 -7.3°
Sets 18:44:10 0° 330° (NNW) 3,327 9.0 -7.8°
